Regional Weather Roundup
Issued by NWS New Orleans/Baton Rouge, LA

Home | Current Version | Previous Version | Text Only | Print | Product List | Glossary On
Versions: 1 2 3 4 5 6 7 8 9 10 11 12 13 14 15 16 17 18 19 20 21 22 23 24 25 26 27 28
000
ASUS44 KLIX 111613
RWRLIX
NEW ORLEANS REGIONAL WEATHER ROUNDUP
NATIONAL WEATHER SERVICE NEW ORLEANS LA
1000 AM CST MON DEC 11 2017

NOTE: "FAIR" INDICATES FEW OR NO CLOUDS BELOW 12,000 FEET WITH NO
      SIGNIFICANT WEATHER AND/OR OBSTRUCTIONS TO VISIBILITY.
      SKY/WX - SKY CONDITION AND SIGNIFICANT WEATHER.
      TMP - AIR TEMPERATURE.     DP    - DEWPOINT TEMPERATURE.
      RH  - RELATIVE HUMIDITY.   PRES  - PRESSURE.
      HI  - HEAT INDEX.          WCI   - WIND CHILL INDEX.

*  THESE STATIONS ARE NOT NWS OR FAA STATIONS AND ARE NOT UNDER
   NWS QUALITY CONTROL.

LAZ038-040-048-061>063-065>067-069-111700-
SOUTHEAST LOUISIANA

CITY           SKY/WX    TMP DP  RH WIND       PRES   REMARKS
N.O. INTL ARPT PTSUNNY   58  41  53 VRB6      30.31F
N.O. LAKEFRONT SUNNY     57  41  55 SW8       30.31F
N.O. DOWNTOWN*   N/A     55  39  54 SW3       30.32F
RESERVE*         N/A     57  41  54 W6        30.31F
SLIDELL        SUNNY     56  42  59 VRB6      30.30S
BATON ROUGE    SUNNY     56  39  53 W8        30.29F
BOOTHVILLE     SUNNY     58  44  60 W8        30.34R
BELLE CHASSE   PTSUNNY   58  43  57 SW9       30.32S
BOGALUSA*      NOT AVBL
GALLIANO*      SUNNY     57  42  57 W8        30.34S
NEW ROADS*       N/A     52  40  63 W3        30.30S
GONZALES*        N/A     56  38  50 W5        30.30F
HAMMOND*       SUNNY     55  39  54 S5        30.29F
HOUMA*         SUNNY     57  45  62 SW7       30.33
PORT FOURCHON* NOT AVBL

$$

MSZ070-080>082-111700-
SOUTHERN MISSISSIPPI

CITY           SKY/WX    TMP DP  RH WIND       PRES   REMARKS
MCCOMB         SUNNY     53  35  50 W10       30.26F
GULFPORT       SUNNY     54  41  61 W6        30.29F
BILOXI         SUNNY     56  44  64 SW6       30.29S
PASCAGOULA       N/A     58  40  51 SW6       30.29F
STENNIS ARPT*  SUNNY     54  45  71 SW6       30.30

$$

COASTAL OBSERVATIONS
LAKE AND NEARSHORE STATIONS

STATION/POSITION TIME  TEMP    WIND        PRES    WAVE
                       AIR SEA DIR/SP/G            HT/PER
                 (UTC) (F)     (DEG/KT/KT) (MB)    (FT/S)
PASCAGOULA       1548   53     260/  9/ 12 1025.4
WAVELAND YACHT   1548   54 50  270/  4/  6 1025.8
GRAND ISLE       1548   53 52  260/  8/ 11 1027.4
SOUTHWEST PASS   1548   58 57  300/  4/  6 1027.7
NEW CANAL        1548   55 54  230/  6/  7 1026.2
SHELL BEACH      1548   52 53  220/  8/  9 1026.7

OFFSHORE STATIONS

STATION/POSITION TIME  TEMP    WIND        PRES    WAVE
                       AIR SEA DIR/SP/G            HT/PER
                 (UTC) (F)     (DEG/KT/KT) (MB)    (FT/S)
64 S DAUPHIN ISL 1550   61 74  290/  6/  8 1026.6    2/ 4

$$





USA.gov is the U.S. government's official web portal to all federal, state and local government web resources and services.